User: anonymous   Login
Location: Dackenheim
(49.5215°N, 8.1854°E)
Time: 23:20:40
(UTC+00:00)
Language:

CUBESAT XI-V - Orbit

View from above orbital plane
View from above orbital plane
View from above satellite
View from above satellite

Ground track
Ground track

The orbit is defined by the following mean orbital elements,

1 28895U          26071.97796088 +.00000000 +00000-0 +37351-3 0 00007
2 28895  98.2837 225.6641 0014896 147.5945 212.6180 14.72336828    04
Epoch (UTC): 12 March 2026 23:28:15
Eccentricity: 0.0014896
inclination: 98.2837°
perigee height: 643 km
apogee height: 664 km
right ascension of ascending node: 225.6641°
argument of perigee: 147.5945°
revolutions per day: 14.72336828
mean anomaly at epoch: 212.6180°

The dashed part of the orbit path shows where the satellite is in the earth's shadow,  

DLR